Portada
METAR-TAF:

METAR-TAF

Aeroports :

Emerald, Austràlia

latitud: 23-34-03S, longitud: 148-10-45E, altitud: 190 m

Observació

L'informe es va fer fa 40 minuts, a les 07:00 UTC
Vent 8 kt del Est/Sud-Est
Temperatura 28°C
Humitat 25%
Pressió 1016 hPa
Visibilitat 10 km o més
Núvols disperses a una alçada de 11000 ft

METAR: YEML 250700Z AUTO 11008KT 9999 // SCT110 28/06 Q1016

Hora: 17:40 (07:40 UTC)


TAF: manca

Observacions i pronòstics meteorològics de més de 4000 aeroports (METAR i TAF).

Les estacions disponibles són els punts grocs i vermells al mapa.

Posi el ratolí al punt desitjat per veure el nom de l'estació.

Feu clic per veure les observacions i els pronòstics meteorològics.

Per canviar el mapa: feu clic els botons verds amb una creu de color negre per apropar; al botó verd amb un guió per allunyar la imatge; o en les fletxes verdes per a mapes adjacents.


METAR-TAF: